Wetbulb
75.14 75.73 75.89 78.02 75.68 74.86 74.32 73.80 71.89 70.60 71.98 72.54 72.98 76.31 76.66 76.94 77.28 77.03 76.78 73.25 71.39 70.82 70.03 69.92 70.41 71.19 71.72 72.26 72.59 72.97 73.41 73.57 73.56 73.53 73.76 74.36 74.85 75.64
74.93 75.68 75.55 75.52 75.51 75.19 74.60 74.19 73.55 71.24 69.23 72.53 72.86 75.65 77.72 76.69 77.20 77.18 76.96 73.88 71.49 70.60 69.81 69.17 69.48 70.13 70.64 70.97 71.24 71.35 71.68 71.99 72.23 72.31 72.56 72.54 72.70 73.19
76.01 75.84 75.64 76.42 75.02 74.83 74.98 74.64 73.66 73.41 70.81 71.67 73.80 75.79 77.25 77.10 76.95 77.67 77.60 76.84 76.08 70.25 69.84 69.11 68.61 68.83 69.35 69.77 69.82 69.98 70.22 70.55 70.69 71.04 71.56 71.69 71.64 71.90
75.42 75.85 75.11 75.43 75.76 76.18 75.13 75.59 75.98 74.97 72.54 72.63 74.77 74.04 76.32 77.17 77.18 77.29 76.52 75.86 75.97 72.65 69.01 68.25 67.84 67.62 67.65 67.53 67.49 67.56 67.53 67.85 68.43 68.86 69.51 70.09 70.55 70.79
74.58 74.96 75.34 75.16 75.36 76.82 76.73 75.28 75.59 75.99 75.57 73.45 72.70 76.26 74.80 75.68 76.36 77.08 76.86 77.08 76.90 73.44 68.51 67.97 67.39 67.06 66.48 65.43 64.96 64.21 63.55 63.75 64.38 65.04 65.94 66.84 67.96 69.10
75.15 75.20 75.14 74.99 74.65 74.95 75.14 75.34 75.47 75.60 75.59 74.58 74.44 74.96 75.08 77.03 76.82 75.44 75.31 76.73 75.74 76.32 74.56 71.41 70.86 69.21 66.86 65.08 64.65 64.18 61.83 60.97 60.81 61.27 61.79 62.77 64.30 65.83
72.80 73.33 73.76 70.59 68.19 68.19 72.66 75.01 74.25 73.76 72.97 72.08 71.26 71.25 71.09 72.43 73.48 74.34 73.41 74.39 76.41 75.05 75.03 74.37 75.24 75.56 75.37 68.20 70.53 67.52 64.43 62.62 61.02 60.17 59.66 59.72 60.42 61.80
70.78 71.28 72.45 70.49 70.44 67.75 67.20 67.08 68.29 71.43 71.41 70.44 69.84 69.48 70.83 70.71 70.61 69.79 69.62 68.63 67.17 71.80 71.54 70.88 72.94 71.80 72.50 74.16 69.72 67.64 65.06 63.88 62.64 61.12 60.11 59.31 59.20 59.62
69.94 70.15 69.86 70.02 69.95 70.72 68.48 66.99 66.66 66.63 66.10 69.93 69.11 68.88 69.04 70.27 70.96 70.09 70.62 69.35 68.85 70.59 71.80 68.63 70.85 69.84 71.67 71.53 66.15 66.42 65.39 64.37 63.32 62.29 61.20 60.00 59.14 58.44
67.91 68.05 67.87 67.86 63.55 64.00 67.31 68.67 69.33 69.45 70.04 69.93 70.18 69.99 70.43 69.35 71.23 70.98 70.27 70.37 70.26 70.18 72.33 67.03 70.14 69.11 70.87 71.76 66.71 65.78 64.48 63.40 62.14 61.19 60.24 59.12 57.66 56.66
67.72 66.75 65.54 63.33 56.39 56.57 62.94 64.80 65.70 66.74 66.41 63.76 63.08 61.92 61.38 61.22 62.75 65.48 65.41 65.66 65.42 66.84 69.94 67.73 68.36 68.43 69.64 70.52 71.95 64.90 63.56 61.47 60.05 59.94 59.87 58.59 56.50 55.46
65.56 66.00 57.46 59.44 54.85 54.71 61.82 63.73 63.92 65.34 65.75 66.52 66.54 65.66 63.78 66.60 62.23 67.76 67.24 64.98 65.12 64.66 69.42 67.16 67.80 68.06 66.37 70.37 71.09 72.31 73.65 61.18 59.46 58.94 58.89 58.47 56.56 69.93
63.53 64.82 63.55 54.77 53.74 53.67 55.15 62.90 60.93 61.09 63.91 65.28 65.32 66.06 65.89 65.47 65.63 67.12 68.20 66.99 65.65 65.59 68.12 68.81 68.02 67.99 66.68 66.41 68.88 70.13 71.24 70.28 70.37 69.73 59.15 56.35 55.37 60.64
62.64 62.72 60.52 52.75 52.81 52.85 56.65 53.42 54.65 57.26 63.30 63.33 63.28 62.81 62.45 62.43 64.06 64.79 66.09 67.69 68.41 68.78 69.32 70.24 68.02 67.35 66.60 66.11 65.77 68.47 69.33 70.13 70.42 70.35 70.75 65.32 56.99 55.09
60.41 55.00 53.57 52.39 53.38 53.93 53.88 54.27 56.16 62.16 61.74 61.41 60.84 60.67 61.54 62.29 63.03 63.63 64.74 66.53 66.60 66.97 67.34 69.35 69.84 68.71 68.37 66.47 65.32 67.24 66.23 68.09 69.39 69.49 70.28 70.43 69.92 69.72
56.08 58.94 57.15 55.29 51.59 56.11 58.08 59.28 61.01 59.92 59.32 59.30 59.06 60.14 61.41 61.33 61.12 61.43 60.80 61.16 60.89 62.69 66.59 67.54 67.32 66.93 63.02 65.40 65.27 64.28 66.50 65.02 67.76 67.80 68.66 69.38 70.17 70.32
54.63 61.99 61.78 61.31 60.61 59.63 59.22 58.80 58.80 59.64 59.21 59.57 59.03 58.66 59.08 59.14 58.83 59.67 59.27 58.70 58.19 58.95 60.03 62.02 64.29 64.52 64.04 64.27 63.10 65.03 65.50 65.93 67.30 68.07 68.20 67.40 68.72 69.47
57.07 59.90 58.18 57.60 56.43 56.01 55.53 55.70 55.58 55.45 55.61 56.32 56.99 57.55 56.79 56.64 56.07 57.42 57.12 56.52 56.20 57.35 57.95 58.47 58.17 57.30 58.73 61.22 61.53 61.08 62.17 63.15 65.12 65.84 66.54 65.80 66.16 68.70
56.40 57.53 57.13 56.73 56.30 55.77 55.18 54.58 54.05 54.47 56.16 54.84 55.07 54.98 54.81 54.78 54.76 54.67 54.66 55.05 55.03 56.05 56.39 57.85 57.61 55.30 52.79 52.53 58.97 57.71 59.08 60.70 61.81 63.36 64.46 64.78 64.48 66.84
57.62 57.21 56.70 56.81 56.81 56.76 56.32 55.67 55.50 54.81 54.51 54.67 54.67 54.96 54.86 54.25 54.09 54.09 54.50 53.98 54.20 55.20 55.51 56.88 57.43 56.67 54.72 55.21 56.56 60.47 54.44 60.19 60.13 59.27 60.29 62.48 64.87 60.99
56.33 55.82 56.39 56.99 57.27 57.61 57.99 57.57 56.33 55.01 53.45 54.03 54.31 54.11 54.54 54.48 54.27 54.49 54.72 49.00 50.79 55.49 54.90 55.27 57.06 55.57 59.21 59.66 56.52 56.32 59.15 54.41 57.29 59.50 60.58 59.93 60.31 61.74
56.72 55.97 56.69 57.27 57.78 58.20 58.53 58.35 56.96 56.65 55.81 54.11 53.91 54.04 54.23 54.20 53.33 53.41 53.87 53.98 54.74 54.87 55.28 56.21 58.25 58.11 57.53 56.41 55.08 56.27 56.90 58.61 57.00 55.57 55.47 57.46 57.67 54.55
56.50 56.44 56.73 56.77 57.19 57.14 57.50 57.49 56.95 56.48 56.87 54.22 53.37 53.58 53.61 52.81 53.42 53.46 53.52 53.77 54.22 54.01 54.74 54.48 55.81 56.94 56.50 56.52 54.66 55.97 57.41 57.07 56.74 56.49 58.01 56.25 55.95 55.51
MSLP
1015.24 1015.48 1015.45 1015.81 1015.12 1015.04 1015.10 1014.94 1014.61 1014.83 1014.91 1015.16 1014.34 1015.08 1015.03 1015.25 1015.56 1015.76 1015.90 1016.07 1016.65 1016.96 1017.21 1017.37 1017.53 1017.69 1017.76 1017.82 1017.90 1017.97 1018.05 1018.07 1018.12 1018.17 1018.18 1018.23 1018.25 1018.24
1014.77 1014.86 1015.12 1014.75 1015.01 1014.63 1014.66 1014.64 1014.67 1014.51 1013.86 1014.11 1014.68 1014.46 1014.73 1014.93 1015.10 1015.60 1015.40 1015.60 1016.04 1016.31 1016.46 1016.61 1016.76 1016.83 1016.87 1016.96 1017.03 1017.09 1017.14 1017.22 1017.25 1017.22 1017.22 1017.25 1017.27 1017.29
1014.49 1014.57 1014.88 1014.82 1014.49 1014.38 1014.81 1014.75 1014.46 1014.39 1014.11 1013.57 1013.62 1014.25 1015.13 1015.16 1014.73 1014.69 1014.78 1014.73 1014.54 1015.15 1015.45 1015.69 1015.86 1015.99 1016.07 1016.14 1016.17 1016.21 1016.19 1016.17 1016.21 1016.30 1016.35 1016.36 1016.41 1016.38
1014.61 1014.53 1014.43 1014.59 1014.59 1014.60 1014.45 1014.31 1014.10 1014.02 1014.16 1013.96 1013.71 1013.64 1014.31 1014.57 1014.58 1014.58 1014.27 1013.71 1013.40 1013.60 1014.35 1014.75 1014.92 1015.02 1015.12 1015.20 1015.25 1015.31 1015.34 1015.37 1015.28 1015.24 1015.33 1015.44 1015.39 1015.46
1014.54 1014.51 1014.46 1014.60 1014.74 1014.68 1014.80 1014.77 1014.71 1014.78 1014.89 1014.74 1014.15 1014.32 1014.12 1013.86 1013.83 1013.91 1013.89 1013.52 1013.29 1013.17 1013.54 1013.53 1013.71 1013.88 1014.06 1014.18 1014.25 1014.32 1014.41 1014.48 1014.68 1014.53 1014.56 1014.62 1014.64 1014.61
1014.42 1014.45 1014.38 1014.49 1014.71 1014.82 1014.91 1014.90 1015.00 1014.94 1015.01 1015.03 1014.92 1014.74 1014.71 1014.46 1014.57 1014.45 1013.96 1013.78 1013.47 1012.37 1012.06 1012.20 1012.42 1012.68 1012.96 1013.08 1013.20 1013.33 1013.40 1013.40 1013.46 1013.57 1013.64 1013.74 1013.82 1013.83
1014.56 1014.58 1014.63 1015.29 1015.39 1015.28 1014.90 1014.94 1014.98 1014.94 1014.93 1014.85 1014.67 1014.35 1014.01 1013.75 1014.24 1014.19 1014.10 1013.51 1013.31 1012.94 1012.51 1012.22 1011.80 1011.51 1011.05 1011.72 1011.53 1011.83 1012.03 1012.23 1012.48 1012.64 1012.72 1012.77 1012.79 1012.86
1014.77 1014.76 1014.96 1015.15 1015.19 1015.47 1015.50 1015.46 1015.42 1015.01 1014.80 1014.33 1013.64 1013.31 1013.30 1013.45 1013.03 1013.00 1012.65 1012.42 1011.79 1011.56 1011.47 1011.10 1010.82 1010.81 1010.55 1010.16 1010.23 1010.78 1011.22 1011.39 1011.50 1011.68 1011.85 1011.87 1011.89 1011.94
1015.27 1015.23 1015.08 1014.78 1015.47 1015.57 1015.55 1015.52 1015.31 1015.20 1015.12 1014.82 1014.42 1014.15 1013.96 1013.82 1013.70 1013.60 1013.32 1012.95 1012.34 1011.79 1011.61 1010.90 1010.88 1010.37 1010.16 1009.94 1010.04 1010.19 1010.53 1010.77 1010.89 1010.98 1011.07 1011.16 1011.22 1011.28
1015.72 1015.65 1015.71 1015.95 1016.83 1016.94 1016.28 1015.25 1014.83 1014.68 1014.56 1014.54 1014.29 1014.32 1014.33 1014.52 1014.40 1014.04 1013.93 1013.58 1012.83 1012.08 1011.58 1010.95 1010.66 1010.27 1009.80 1009.10 1009.22 1009.57 1009.82 1010.00 1010.19 1010.35 1010.41 1010.42 1010.45 1010.48
1015.81 1016.09 1016.48 1016.63 1017.27 1017.13 1016.65 1015.94 1015.56 1015.02 1014.25 1014.74 1014.91 1014.88 1014.97 1015.01 1015.04 1014.55 1013.63 1012.67 1011.66 1010.92 1010.52 1010.08 1009.68 1009.28 1009.06 1008.64 1008.18 1008.38 1008.74 1009.16 1009.47 1009.63 1009.67 1009.65 1009.68 1009.68
1015.72 1016.01 1017.01 1017.30 1017.58 1017.37 1016.78 1015.87 1015.32 1014.58 1014.36 1014.18 1014.53 1014.20 1014.24 1013.78 1013.99 1013.92 1013.37 1012.63 1011.71 1010.94 1010.45 1010.50 1009.98 1009.39 1009.16 1008.54 1008.09 1007.92 1008.20 1008.40 1008.42 1008.46 1008.51 1008.58 1008.68 1008.54
1015.44 1015.47 1016.30 1017.61 1017.76 1017.49 1017.06 1016.28 1016.33 1016.19 1015.15 1014.64 1013.97 1013.42 1013.29 1013.21 1013.68 1013.79 1013.60 1013.36 1012.66 1011.57 1011.03 1011.39 1010.75 1010.18 1009.66 1008.99 1008.48 1008.16 1008.08 1008.02 1007.80 1007.58 1007.66 1007.67 1007.62 1007.89
1016.10 1016.16 1017.04 1017.80 1017.88 1017.73 1017.19 1017.20 1016.68 1016.12 1015.21 1014.67 1014.26 1014.08 1013.88 1013.58 1013.18 1013.28 1013.45 1012.89 1012.80 1012.67 1012.12 1011.84 1011.43 1010.70 1009.80 1008.92 1008.35 1008.06 1007.93 1007.48 1007.15 1006.98 1006.84 1006.17 1006.40 1006.63
1016.86 1017.35 1017.63 1017.70 1017.45 1017.52 1017.24 1016.90 1016.22 1015.38 1014.94 1014.51 1014.41 1014.26 1014.11 1014.01 1013.92 1013.37 1012.97 1012.73 1012.40 1011.93 1011.40 1011.18 1011.18 1010.93 1010.57 1009.86 1009.08 1008.73 1008.21 1007.54 1007.33 1006.64 1005.88 1005.66 1005.82 1005.95
1017.07 1016.82 1017.18 1017.25 1017.02 1016.85 1016.46 1016.35 1016.01 1016.02 1015.48 1015.19 1015.14 1014.95 1014.54 1014.08 1013.41 1013.36 1013.02 1012.98 1012.66 1011.76 1011.46 1011.22 1011.24 1011.13 1010.65 1009.63 1009.15 1008.73 1007.94 1007.32 1006.94 1006.77 1006.08 1005.65 1005.20 1004.72
1017.26 1016.21 1016.04 1016.04 1016.17 1015.86 1015.76 1016.06 1015.95 1015.81 1015.60 1015.32 1015.32 1015.05 1014.92 1014.19 1013.84 1013.76 1013.40 1013.32 1012.80 1012.27 1011.73 1011.44 1011.44 1011.30 1010.79 1010.20 1009.20 1008.54 1008.14 1007.53 1006.99 1006.78 1006.54 1005.62 1004.99 1004.72
1016.88 1016.12 1015.94 1015.97 1016.07 1016.17 1015.94 1015.86 1015.91 1016.18 1016.24 1015.41 1015.18 1015.02 1015.12 1014.70 1014.45 1013.83 1013.72 1013.48 1013.05 1012.58 1012.33 1012.31 1012.20 1011.95 1011.30 1010.42 1009.97 1009.15 1008.45 1007.63 1006.97 1006.64 1006.49 1005.72 1004.73 1004.20
1016.57 1016.34 1016.23 1016.22 1016.25 1016.12 1016.14 1016.20 1016.03 1016.41 1016.53 1015.91 1015.47 1015.27 1015.26 1014.93 1014.24 1013.84 1013.89 1013.65 1013.12 1012.78 1012.56 1012.15 1011.84 1011.83 1011.42 1010.77 1010.16 1009.95 1009.67 1008.70 1008.15 1007.41 1006.33 1005.70 1004.90 1004.14
1016.21 1016.17 1016.20 1016.37 1016.29 1016.07 1016.24 1016.41 1016.27 1016.09 1016.25 1015.91 1015.57 1015.45 1015.44 1015.18 1014.45 1014.14 1013.79 1013.68 1013.26 1012.83 1012.22 1011.55 1011.14 1011.31 1011.20 1010.87 1010.20 1009.26 1009.07 1009.09 1008.67 1007.69 1006.48 1005.58 1004.65 1003.63
1015.87 1015.97 1016.26 1016.19 1016.09 1016.20 1016.35 1016.46 1016.52 1016.36 1016.60 1016.08 1015.81 1015.77 1015.57 1015.07 1014.54 1014.28 1013.72 1013.62 1013.39 1012.45 1011.84 1011.36 1011.39 1011.66 1010.62 1009.73 1008.79 1008.17 1008.00 1008.22 1008.25 1007.80 1006.66 1005.94 1005.18 1004.37
1015.55 1015.83 1015.98 1016.20 1015.94 1016.18 1016.15 1016.03 1015.99 1016.06 1015.98 1016.03 1016.06 1015.84 1015.57 1015.07 1014.54 1014.02 1013.61 1013.33 1012.91 1012.65 1012.05 1011.69 1011.17 1010.62 1009.97 1009.26 1008.70 1008.15 1007.48 1007.45 1007.01 1006.84 1006.51 1007.01 1006.53 1005.77
1015.27 1015.49 1015.68 1015.81 1015.78 1015.88 1015.72 1015.57 1015.69 1015.80 1015.85 1016.10 1016.00 1015.75 1015.48 1014.94 1014.60 1014.10 1013.62 1013.24 1012.89 1012.76 1012.06 1011.65 1010.93 1010.36 1009.59 1008.98 1008.62 1007.79 1007.11 1006.75 1006.20 1005.69 1005.41 1005.64 1005.35 1005.18
Wind_Speed
9 9 7 5 7 5 5 5 4 6 4 4 5 5 4 5 4 8 11 11 17 18 17 18 19 19 20 20 20 20 21 21 21 21 21 21 22 22
8 8 7 7 9 6 6 6 5 6 5 7 5 3 2 4 5 6 9 5 13 14 16 16 18 19 19 20 20 20 21 21 21 22 21 21 21 21
10 7 9 9 8 7 7 6 7 6 7 6 5 4 5 7 7 7 7 8 9 18 17 16 16 17 18 18 19 20 21 21 21 21 22 21 21 21
9 10 11 9 11 9 8 9 7 8 8 9 7 6 7 8 9 9 9 10 10 10 16 15 16 17 18 18 17 18 18 19 21 21 21 21 22 20
7 8 9 8 9 7 7 7 8 7 6 8 10 6 8 8 8 10 10 11 10 10 14 16 17 17 17 17 17 17 18 17 17 19 20 20 20 20
2 3 5 6 7 7 7 7 7 7 7 6 7 7 6 8 6 7 8 6 9 11 9 8 9 15 18 17 17 17 17 19 19 19 19 19 19 19
4 5 6 6 6 5 3 0 3 4 4 4 6 6 7 6 7 5 7 8 7 9 9 9 7 8 11 17 15 20 19 18 17 17 17 18 18 18
5 5 5 7 5 3 2 2 5 6 8 8 9 9 9 9 8 8 9 9 10 8 9 9 9 10 11 11 5 1 12 14 14 15 16 16 16 16
5 6 7 6 3 8 3 6 9 7 7 8 10 10 11 10 9 10 10 10 10 10 10 11 10 12 10 11 12 11 7 9 11 12 13 14 14 14
5 6 6 6 11 11 12 9 8 8 8 7 7 8 9 10 9 10 11 11 12 12 12 12 10 11 12 11 9 12 12 11 11 11 12 13 13 14
2 4 6 5 7 7 7 8 8 9 4 5 5 7 10 10 8 8 11 12 12 11 10 10 10 11 11 11 12 14 13 11 11 12 12 13 13 12
4 4 11 8 7 6 8 8 8 8 7 8 10 11 14 13 16 11 9 11 11 12 9 6 11 9 9 9 10 6 3 13 12 13 14 13 12 9
3 1 7 11 6 6 7 6 7 9 9 9 7 7 8 7 6 3 4 6 9 11 11 8 10 11 9 9 12 10 4 6 6 10 10 14 13 11
4 4 5 6 2 4 7 8 8 10 4 4 4 4 5 5 6 6 10 10 8 10 11 12 9 12 13 13 12 10 8 10 10 10 11 11 11 14
6 6 3 6 9 8 3 8 10 4 5 5 5 6 6 6 8 7 8 8 11 11 10 13 9 11 9 10 10 9 10 10 9 13 10 9 7 8
8 6 2 4 3 3 6 5 4 5 5 6 7 7 5 5 5 6 7 7 8 8 9 8 8 8 9 10 8 10 11 12 11 12 12 11 12 12
8 2 1 2 2 3 4 4 5 4 5 4 4 5 6 5 6 6 6 6 6 8 8 9 11 11 10 11 12 11 12 11 11 8 10 11 11 12
5 1 2 2 3 4 4 4 4 5 6 5 5 5 5 6 6 5 5 5 6 7 8 9 9 10 10 12 4 12 11 11 11 12 13 13 12 11
5 2 1 1 2 2 3 4 4 5 4 5 5 5 6 5 5 6 6 6 7 7 6 6 5 4 8 10 9 4 10 11 9 11 12 10 10 12
1 1 2 1 1 2 2 3 3 4 4 5 5 5 5 6 6 6 5 7 7 6 7 7 8 9 8 8 10 11 8 5 4 9 12 13 13 15
3 3 3 2 1 0 1 2 4 4 4 5 4 5 4 5 5 5 6 3 5 7 8 8 8 10 10 7 9 10 8 7 6 10 13 11 11 11
3 4 3 2 2 2 2 2 3 2 3 4 4 4 4 5 5 6 6 7 7 8 8 9 9 8 9 9 10 13 9 11 9 6 12 5 2 7
3 4 3 4 4 4 3 3 3 3 2 3 3 3 4 5 5 5 6 6 6 8 8 10 9 9 9 9 7 11 11 10 10 10 8 16 11 13
Wind_Direction
226 227 228 225 256 220 233 257 273 209 199 209 240 187 196 198 215 243 230 211 206 217 224 230 234 237 240 241 242 244 244 245 245 246 249 251 253 254
222 219 234 205 242 231 235 233 238 272 281 164 227 189 197 274 179 236 261 217 196 214 224 229 234 236 238 240 241 241 242 242 244 244 244 247 250 252
245 214 218 245 238 226 227 243 249 238 254 259 193 211 235 258 277 255 242 237 229 208 217 223 230 236 238 238 239 240 240 241 242 243 245 246 250 251
230 244 227 218 232 247 249 243 265 249 248 249 271 262 214 248 265 270 269 270 266 193 202 214 223 231 236 239 237 238 237 239 241 241 243 245 247 251
255 244 247 241 249 264 251 251 248 248 250 257 268 273 276 267 268 247 251 256 264 253 198 213 218 222 229 234 235 236 236 240 243 240 242 245 248 248
285 265 262 268 270 271 268 263 266 265 262 262 274 286 299 301 281 285 281 284 294 301 299 264 226 223 226 230 233 236 235 236 237 239 241 242 243 245
342 341 82 45 60 41 312 29 300 259 253 259 260 258 264 270 268 259 264 272 267 255 270 281 277 247 229 227 239 224 227 231 235 237 237 238 239 240
305 313 300 184 162 140 80 329 325 276 273 283 279 275 290 278 280 293 292 297 296 297 289 280 293 297 292 284 319 311 216 230 232 236 238 240 240 241
312 313 305 75 326 325 205 229 235 218 244 281 276 280 293 287 295 289 281 295 287 304 298 285 296 290 286 282 249 251 248 254 255 250 248 246 245 245
339 333 335 1 44 354 326 309 299 295 264 267 286 307 317 346 323 305 305 286 269 255 247 257 266 262 267 270 235 197 214 234 241 248 253 253 251 247
328 341 340 91 32 358 308 303 302 293 257 192 239 266 278 279 267 286 274 279 284 285 285 275 275 283 288 302 294 200 208 217 220 234 239 243 247 253
267 158 73 40 13 338 298 287 284 286 305 309 293 254 233 236 221 235 270 271 279 284 289 311 291 293 278 246 252 336 269 219 213 216 227 230 231 258
334 25 79 45 25 0 317 357 349 316 278 269 308 319 3 20 16 12 327 315 301 295 310 332 306 302 295 287 294 316 328 315 302 295 241 242 232 226
345 24 62 27 341 10 323 341 291 274 293 299 287 289 308 311 311 319 311 311 305 290 295 292 287 295 299 295 298 308 301 291 279 273 256 271 226 219
20 48 340 285 267 207 73 309 285 345 332 320 340 342 341 343 326 326 321 327 315 306 293 311 303 299 289 282 285 288 291 293 301 290 295 295 269 280
170 179 38 324 267 266 239 238 24 10 351 4 355 340 327 326 341 357 339 343 324 323 326 315 322 326 309 297 295 292 291 284 280 276 277 286 280 273
309 274 296 11 19 42 58 33 35 4 5 15 16 353 347 352 10 3 9 354 344 339 342 343 355 328 314 302 298 300 298 298 300 303 299 284 283 285
244 148 87 60 44 28 31 30 36 17 1 355 360 353 353 345 349 5 5 355 345 347 350 353 353 346 344 333 351 328 313 307 303 304 305 298 292 296
229 114 100 80 68 61 40 29 25 35 329 359 356 357 356 348 321 10 357 349 347 352 347 310 317 346 337 330 314 6 316 308 306 299 305 298 300 293
234 206 158 165 121 51 17 9 12 20 1 351 353 355 353 341 348 356 355 352 353 333 336 336 344 355 332 321 299 309 286 300 328 315 312 310 300 281
200 212 220 217 125 356 16 343 323 22 343 336 344 337 343 331 346 349 339 293 284 341 338 344 359 290 287 281 302 331 330 185 251 305 318 317 332 317
217 243 233 248 242 252 281 313 301 304 351 325 330 322 335 325 344 343 347 335 340 342 337 334 332 324 320 325 338 323 333 339 312 261 254 224 332 317
211 251 267 257 246 238 257 277 276 293 305 302 302 326 335 339 340 342 336 335 336 326 348 329 330 326 322 322 315 316 321 335 332 337 331 194 205 231